Regional Weather Roundup
Issued by NWS

Home | Current Version | Previous Version | Graphics & Text | Print | Product List | Glossary On
Versions: 1 2 3 4 5 6 7 8 9 10 11 12 13 14 15 16 17 18 19 20 21 22 23 24 25 26 27 28 29 30 31 32 33 34 35 36 37 38 39 40 41 42 43 44 45 46 47 48 49 50
000
ASUS44 KMEG 281510
RWRTN
TENNESSEE HOURLY STATE WEATHER ROUNDUP
NATIONAL WEATHER SERVICE MEMPHIS TN
1000 AM CDT WED SEP 28 2016

TNZ002-004-019-021-049-052-054-088>092-281600-
WEST TENNESSEE

CITY           SKY/WX    TMP DP  RH WIND       PRES   REMARKS
MEMPHIS INTL   SUNNY     74  54  49 SW7       29.96R
NWS MEMPHIS      N/A     73 N/A N/A MISG        N/A
JACKSON        SUNNY    N/A N/A N/A SW9       29.93F
DYERSBURG      SUNNY    N/A N/A N/A MISG        N/A
UNION CITY     SUNNY     73  55  53 SW7       29.87S
PARIS          SUNNY     70  52  52 SW10      29.90S
HUNTINGDON     SUNNY     73  54  49 SW9       29.90S
LEXINGTON      SUNNY     68  54  60 S7        29.94S
$$

TNZ008-025-027-028-033-062-065-066-281600-
NORTH MIDDLE TENNESSEE

CITY           SKY/WX    TMP DP  RH WIND       PRES   REMARKS
NASHVILLE      MOSUNNY   71  45  39 S10       29.94S
PORTLAND       PTSUNNY   68  50  52 SW13      29.92S
CLARKSVILLE    SUNNY     70  51  51 SW10      29.89S
SMYRNA         SUNNY     71  49  45 S8        29.95S
COOKEVILLE     SUNNY     68  52  56 SW7       29.96S
GALLATIN       SUNNY     68  52  56 VRB6      29.96S
CROSSVILLE     SUNNY     69  45  41 VRB3      30.00R
$$

TNZ061-075-076-078-094-096-097-281600-
SOUTH MIDDLE TENNESSEE

CITY           SKY/WX    TMP DP  RH WIND       PRES   REMARKS
FAYETTEVILLE   SUNNY     70  48  46 SW6       29.99S
TULLAHOMA      SUNNY     70  48  46 S7        29.99S
WINCHESTER     SUNNY     70  50  49 CALM      29.99S
MCMINNVILLE    SUNNY     72  52  49 VRB7      29.98R
COLUMBIA       SUNNY     72  55  56 SW9       29.95S
SHELBYVILLE    SUNNY     73  52  46 S8        29.98S
$$

TNZ017-018-042-046-047-281600-
NORTHEAST TENNESSEE

CITY           SKY/WX    TMP DP  RH WIND       PRES   REMARKS
TRI CITIES     MOSUNNY   67  59  75 CALM      29.98R
ELIZABETHTON   SUNNY     70  61  73 CALM      29.96F
$$

TNZ012-013-036-069-073-074-281600-
CENTRAL EAST TENNESSEE

CITY           SKY/WX    TMP DP  RH WIND       PRES   REMARKS
KNOXVILLE      MOSUNNY   69  52  54 W3        29.97R
OAK RIDGE      SUNNY     70  46  42 VRB3      29.99R
DOWNTOWN KNOXV SUNNY     70  54  56 CALM      29.97S
GATLINBURG     SUNNY     70  48  46 CALM      29.97R
MORRISTOWN     SUNNY     70  48  46 CALM      29.97R
JACKSBORO      SUNNY     66  48  52 CALM      30.00F
$$

TNZ083-085-099-281600-
SOUTHEAST TENNESSEE

CITY           SKY/WX    TMP DP  RH WIND       PRES   REMARKS
CHATTANOOGA    SUNNY     69  52  54 MISG      29.98S
$$

SKY/WX REPORTED AS FAIR MEANS FEW OR NO CLOUDS BELOW
12 THOUSAND FEET.





USA.gov is the U.S. government's official web portal to all federal, state and local government web resources and services.